Overview Statistics Trail Chart Weather Telemetry Raw packets
 

This is the latest recevied weather packets stored in our database for station/object VE8SKI. If no packets are shown the sender has not sent any weather packets the latest 10 day(s).

<< 106 107 108 109 110 111 112 >>
Time Temp. Humidity Pressure Rain* Wind** Luminosity Snow
1777299871 -6.67° C 72% 1026 hPa 0 mm 1.79 m/s, 210° - -
1777299568 -7.22° C 74% 1026.2 hPa 0 mm 0.45 m/s, 110° - -
1777299268 -7.78° C 73% 1026.3 hPa 0 mm 1.79 m/s, 83° - -
1777298968 -7.78° C 74% 1026.5 hPa 0 mm 1.79 m/s, 107° - -
1777298668 -7.78° C 75% 1026.6 hPa 0 mm 1.79 m/s, 86° - -
1777298368 -8.33° C 75% 1026.8 hPa 0 mm 1.34 m/s, 70° - -
1777298068 -8.33° C 75% 1027 hPa 0 mm 2.24 m/s, 80° - -
1777297765 -8.33° C 77% 1027 hPa 0 mm 1.34 m/s, 110° - -
1777297465 -8.89° C 78% 1027 hPa 0 mm 1.79 m/s, 139° - -
1777297165 -8.89° C 79% 1027.2 hPa 0 mm 1.34 m/s, 90° - -
1777296865 -8.89° C 80% 1027.3 hPa 0 mm 0.89 m/s, 108° - -
1777296565 -9.44° C 81% 1027.4 hPa 0 mm 1.34 m/s, 46° - -
1777296265 -9.44° C 82% 1027.5 hPa 0 mm 1.34 m/s, 103° - -
1777295962 -9.44° C 83% 1027.6 hPa 0 mm 1.34 m/s, 103° - -
1777295662 -10° C 85% 1027.6 hPa 0 mm 1.34 m/s, 84° - -
1777295362 -10° C 87% 1027.8 hPa 0 mm 1.34 m/s, 107° - -
1777295062 -10.56° C 89% 1027.9 hPa 0 mm 1.34 m/s, 90° - -
1777294462 -11.11° C 90% 1028.2 hPa 0 mm 1.34 m/s, 98° - -
1777294159 -11.11° C 90% 1028.2 hPa 0 mm 1.79 m/s, 110° - -
1777293859 -11.11° C 90% 1028.3 hPa 0 mm 1.34 m/s, 141° - -
1777293559 -11.11° C 91% 1028.4 hPa 0 mm 1.34 m/s, 91° - -
1777293258 -11.67° C 92% 1028.5 hPa 0 mm 1.34 m/s, 90° - -
1777292958 -11.67° C 92% 1028.5 hPa 0 mm 1.34 m/s, 93° - -
1777292658 -11.67° C 93% 1028.7 hPa 0 mm 1.34 m/s, 77° - -
1777292355 -11.67° C 93% 1028.8 hPa 0 mm 1.34 m/s, 107° - -

* Rain latest hour (hover to see other rain measurements)
** Current wind speed in m/s (hover to see current wind gust speed)